• En España
  • Lista de países
  • Para 7 días
  • Temperatura del agua
  • Mapa Satelital
  • El tiempo en el mapa
  • Informadores
  • user-avatar
    Iniciar sesión

    Tiempo cada hora Bregenz

    Hoy, 23 Noviembre, Jueves

    Tiempo Temperatura Precipitaciones Viento Presión Humedad
    00:00 -2°C° 0 mm 3 mps 642 mmHg 77%
    01:00 -2°C° 0 mm 3 mps 642 mmHg 78%
    02:00 -2°C° 0 mm 3 mps 642 mmHg 78%
    03:00 -2°C° 0 mm 3 mps 642 mmHg 79%
    04:00 -2°C° 0 mm 3 mps 642 mmHg 79%
    05:00 -2°C° 0 mm 3 mps 642 mmHg 79%
    06:00 -2°C° 0 mm 3 mps 642 mmHg 79%
    07:00 -2°C° 0 mm 2 mps 642 mmHg 81%
    08:00 -1°C° 0 mm 2 mps 643 mmHg 80%
    09:00 +1°C° 0 mm 2 mps 643 mmHg 78%
    10:00 +2°C° 0 mm 3 mps 643 mmHg 77%
    11:00 +4°C° 0 mm 2 mps 644 mmHg 77%
    12:00 +5°C° 0 mm 2 mps 644 mmHg 77%
    13:00 +7°C° 0 mm 2 mps 644 mmHg 77%
    14:00 +6°C° 0 mm 2 mps 644 mmHg 79%
    15:00 +5°C° 0 mm 2 mps 644 mmHg 80%
    16:00 +4°C° 0 mm 2 mps 644 mmHg 81%
    17:00 +3°C° 0 mm 2 mps 644 mmHg 81%
    18:00 +2°C° 0 mm 2 mps 644 mmHg 80%
    19:00 +1°C° 0 mm 2 mps 645 mmHg 80%
    20:00 +1°C° 0 mm 2 mps 645 mmHg 79%
    21:00 +1°C° 0 mm 2 mps 645 mmHg 77%
    22:00 +1°C° 0 mm 2 mps 645 mmHg 76%
    23:00 -1°C° 0 mm 2 mps 645 mmHg 75%

    Mañana, 24 Noviembre, Viernes

    Tiempo Temperatura Precipitaciones Viento Presión Humedad
    00:00 -1°C° 0 mm 2 mps 645 mmHg 74%
    01:00 -1°C° 0 mm 2 mps 645 mmHg 74%
    02:00 -1°C° 0 mm 2 mps 645 mmHg 74%
    03:00 -1°C° 0 mm 2 mps 645 mmHg 74%
    04:00 -1°C° 0 mm 2 mps 645 mmHg 74%
    05:00 -1°C° 0 mm 3 mps 644 mmHg 74%
    06:00 -1°C° 0 mm 3 mps 644 mmHg 74%
    07:00 -1°C° 0 mm 3 mps 644 mmHg 74%
    08:00 0°C° 0 mm 3 mps 644 mmHg 73%
    09:00 +1°C° 0 mm 3 mps 645 mmHg 72%
    10:00 +2°C° 0 mm 3 mps 645 mmHg 71%
    11:00 +5°C° 0 mm 2 mps 645 mmHg 71%
    12:00 +6°C° 0 mm 2 mps 645 mmHg 71%
    13:00 +7°C° 0 mm 2 mps 645 mmHg 72%
    14:00 +6°C° 0 mm 2 mps 645 mmHg 74%
    15:00 +5°C° 0 mm 2 mps 645 mmHg 76%
    16:00 +4°C° 0 mm 2 mps 645 mmHg 79%
    17:00 +4°C° 0 mm 2 mps 645 mmHg 80%
    18:00 +3°C° 0 mm 2 mps 645 mmHg 82%
    19:00 +2°C° 0 mm 2 mps 645 mmHg 83%
    20:00 +2°C° 0 mm 2 mps 645 mmHg 84%
    21:00 +1°C° 0 mm 2 mps 644 mmHg 84%
    22:00 +1°C° 0 mm 2 mps 644 mmHg 84%
    23:00 +1°C° 0 mm 2 mps 644 mmHg 84%

    Pasado mañana, 25 Noviembre, Sábado

    Tiempo Temperatura Precipitaciones Viento Presión Humedad
    00:00 +1°C° 0 mm 2 mps 643 mmHg 84%
    01:00 +1°C° 0 mm 2 mps 643 mmHg 84%
    02:00 +1°C° 0 mm 2 mps 642 mmHg 84%
    03:00 +1°C° 0 mm 2 mps 642 mmHg 83%
    04:00 +1°C° 0 mm 2 mps 641 mmHg 83%
    05:00 +1°C° 0 mm 2 mps 641 mmHg 83%
    06:00 +1°C° 0 mm 2 mps 640 mmHg 83%
    07:00 +1°C° 0 mm 2 mps 639 mmHg 83%
    08:00 +1°C° 0 mm 3 mps 639 mmHg 82%
    09:00 +2°C° 0 mm 3 mps 639 mmHg 81%
    10:00 +2°C° 0 mm 3 mps 639 mmHg 80%
    11:00 +2°C° 1 mm 3 mps 639 mmHg 84%
    12:00 +2°C° 1 mm 3 mps 639 mmHg 89%
    13:00 +2°C° 1 mm 3 mps 639 mmHg 93%
    14:00 0°C° 1,9 mm 4 mps 639 mmHg 92%
    15:00 0°C° 1,9 mm 5 mps 639 mmHg 90%
    16:00 -2°C° 1,9 mm 6 mps 639 mmHg 89%
    17:00 -3°C° 0,7 mm 6 mps 640 mmHg 88%
    18:00 -4°C° 0,7 mm 7 mps 640 mmHg 86%
    19:00 -6°C° 0,7 mm 7 mps 640 mmHg 85%
    20:00 -6°C° 0,2 mm 7 mps 641 mmHg 86%
    21:00 -6°C° 0,2 mm 6 mps 642 mmHg 88%
    22:00 -8°C° 0,2 mm 6 mps 643 mmHg 89%
    23:00 -7°C° 0,3 mm 5 mps 643 mmHg 89%

    26 Noviembre, Domingo

    Tiempo Temperatura Precipitaciones Viento Presión Humedad
    00:00 -7°C° 0,3 mm 5 mps 644 mmHg 90%
    01:00 -8°C° 0,3 mm 5 mps 645 mmHg 90%
    02:00 -8°C° 0,1 mm 4 mps 645 mmHg 91%
    03:00 -9°C° 0,1 mm 4 mps 645 mmHg 91%
    04:00 -9°C° 0,1 mm 3 mps 645 mmHg 92%
    05:00 -9°C° 0 mm 3 mps 646 mmHg 91%
    06:00 -9°C° 0 mm 3 mps 646 mmHg 89%
    07:00 -9°C° 0 mm 2 mps 647 mmHg 88%
    08:00 -8°C° 0 mm 2 mps 647 mmHg 85%
    09:00 -7°C° 0 mm 2 mps 647 mmHg 81%
    10:00 -6°C° 0 mm 2 mps 648 mmHg 78%
    11:00 -7°C° 0 mm 3 mps 648 mmHg 76%
    12:00 -6°C° 0 mm 3 mps 648 mmHg 74%
    13:00 -6°C° 0 mm 3 mps 648 mmHg 72%
    14:00 -6°C° 0,1 mm 3 mps 648 mmHg 74%
    15:00 -7°C° 0,1 mm 3 mps 648 mmHg 77%
    16:00 -7°C° 0,1 mm 3 mps 648 mmHg 79%
    17:00 -7°C° 0 mm 2 mps 648 mmHg 81%
    18:00 -8°C° 0 mm 2 mps 648 mmHg 83%
    19:00 -9°C° 0 mm 2 mps 648 mmHg 84%
    20:00 -9°C° 0 mm 2 mps 648 mmHg 83%
    21:00 -10°C° 0 mm 3 mps 648 mmHg 83%
    22:00 -10°C° 0 mm 3 mps 649 mmHg 82%
    23:00 -10°C° 0 mm 3 mps 648 mmHg 82%

    27 Noviembre, Lunes

    Tiempo Temperatura Precipitaciones Viento Presión Humedad
    00:00 -9°C° 0 mm 2 mps 648 mmHg 82%
    01:00 -10°C° 0 mm 2 mps 648 mmHg 82%
    02:00 -10°C° 0 mm 2 mps 648 mmHg 81%
    03:00 -10°C° 0 mm 2 mps 648 mmHg 81%
    04:00 -10°C° 0 mm 2 mps 648 mmHg 80%
    05:00 -9°C° 0 mm 2 mps 648 mmHg 79%
    06:00 -9°C° 0 mm 2 mps 648 mmHg 79%
    07:00 -9°C° 0 mm 2 mps 648 mmHg 78%
    08:00 -8°C° 0 mm 2 mps 648 mmHg 75%
    09:00 -7°C° 0 mm 2 mps 648 mmHg 73%
    10:00 -6°C° 0 mm 2 mps 648 mmHg 71%
    11:00 -5°C° 0 mm 2 mps 648 mmHg 69%
    12:00 -4°C° 0 mm 2 mps 648 mmHg 68%
    13:00 -3°C° 0 mm 2 mps 648 mmHg 67%
    14:00 -4°C° 0 mm 2 mps 647 mmHg 70%
    15:00 -5°C° 0 mm 2 mps 647 mmHg 74%
    16:00 -3°C° 0 mm 1 mps 646 mmHg 77%
    17:00 -6°C° 0 mm 2 mps 646 mmHg 78%
    18:00 -7°C° 0 mm 2 mps 646 mmHg 79%
    19:00 -8°C° 0 mm 2 mps 645 mmHg 79%
    20:00 -8°C° 0 mm 2 mps 645 mmHg 77%
    21:00 -8°C° 0 mm 2 mps 645 mmHg 75%
    22:00 -8°C° 0 mm 2 mps 644 mmHg 73%
    23:00 -8°C° 0 mm 2 mps 644 mmHg 71%

    28 Noviembre, Martes

    Tiempo Temperatura Precipitaciones Viento Presión Humedad
    00:00 -8°C° 0 mm 2 mps 644 mmHg 70%
    01:00 -8°C° 0 mm 2 mps 643 mmHg 68%
    02:00 -8°C° 0 mm 2 mps 643 mmHg 67%
    03:00 -7°C° 0 mm 2 mps 643 mmHg 66%
    04:00 -7°C° 0 mm 2 mps 643 mmHg 65%
    05:00 -7°C° 0 mm 2 mps 642 mmHg 65%
    06:00 -7°C° 0 mm 2 mps 642 mmHg 64%
    07:00 -7°C° 0 mm 2 mps 642 mmHg 64%
    08:00 -6°C° 0,1 mm 2 mps 642 mmHg 64%
    09:00 -5°C° 0,1 mm 2 mps 642 mmHg 63%
    10:00 -4°C° 0,1 mm 2 mps 642 mmHg 63%
    11:00 -3°C° 0,1 mm 2 mps 641 mmHg 63%
    12:00 -2°C° 0,1 mm 2 mps 641 mmHg 63%
    13:00 -1°C° 0,1 mm 2 mps 641 mmHg 62%
    14:00 -2°C° 0,1 mm 2 mps 640 mmHg 66%
    15:00 -3°C° 0,1 mm 2 mps 640 mmHg 70%
    16:00 -3°C° 0,1 mm 2 mps 639 mmHg 74%
    17:00 -4°C° 0,1 mm 2 mps 639 mmHg 75%
    18:00 -5°C° 0,1 mm 2 mps 639 mmHg 76%
    19:00 -5°C° 0,1 mm 2 mps 639 mmHg 77%
    20:00 -5°C° 0,2 mm 2 mps 639 mmHg 77%
    21:00 -5°C° 0,2 mm 2 mps 639 mmHg 78%
    22:00 -5°C° 0,2 mm 2 mps 639 mmHg 78%
    23:00 -5°C° 0,1 mm 2 mps 638 mmHg 79%
    Mostrar más